Location: Unspecified
(0.0000°N, 0.0000°E)
Time: 06:30:34
(UTC+00:00)

S-56A Canister/Altair - All Passes

Search period start: 05 March 2015 00:00
Search period end: 15 March 2015 00:00
Orbit: 635 x 2501 km, 38.9° (Epoch: 03 March)

Date Brightness Start Highest point End Pass type
(mag) Time Alt. Az. Time Alt. Az. Time Alt. Az.
05 Mar - 01:29:39 10° WNW 01:35:46 15° NW 01:40:12 10° N night (unlit)
05 Mar - 09:59:51 10° NNW 10:04:31 41° NE 10:10:56 10° ESE daylight
05 Mar - 12:03:30 10° W 12:09:00 31° SSW 12:16:34 10° SSE daylight
05 Mar - 18:35:55 10° S 18:40:26 12° SSE 18:46:03 10° SE visible
05 Mar - 20:37:13 10° SSW 20:50:27 37° SE 21:01:57 10° E visible
05 Mar - 22:43:09 10° SW 22:57:43 79° NW 23:08:04 10° NE visible
06 Mar - 00:54:51 10° W 01:03:08 20° NW 01:09:08 10° N night (unlit)
06 Mar - 09:28:13 10° NNW 09:32:24 30° NE 09:37:51 10° ESE daylight
06 Mar - 11:31:16 10° W 11:36:31 35° SSW 11:43:50 10° SSE daylight
06 Mar - 18:05:23 10° SSE 18:06:52 10° SSE 18:09:30 10° SSE daylight
06 Mar - 20:04:25 10° SSW 20:17:08 34° SE 20:28:50 10° E visible
06 Mar - 22:09:47 10° SW 22:24:47 89° NW 22:35:49 10° NE visible
07 Mar - 00:20:25 10° W 00:30:28 26° NW 00:37:43 10° N night (unlit)
07 Mar - 08:56:42 10° N 09:00:18 22° NE 09:04:44 10° E daylight
07 Mar - 10:59:06 10° WNW 11:04:07 41° SW 11:11:09 10° SSE daylight
07 Mar - 19:31:43 10° SSW 19:43:46 30° SSE 19:55:30 10° E visible
07 Mar - 21:36:32 10° SW 21:51:44 82° SE 22:03:26 10° NE visible
07 Mar - 23:46:12 10° W 23:57:43 31° NW 00:06:04 10° NNE visible
08 Mar - 08:25:21 10° N 08:28:10 16° NE 08:31:29 10° E daylight
08 Mar - 10:26:59 10° WNW 10:31:49 48° SW 10:38:31 10° SE daylight
08 Mar - 18:59:10 10° SSW 19:10:23 27° SSE 19:21:55 10° E visible
08 Mar - 21:03:23 10° SW 21:18:36 74° SE 21:30:55 10° NE visible
08 Mar - 23:12:11 10° WSW 23:24:55 38° NW 23:34:14 10° NNE visible
09 Mar - 07:54:26 10° NNE 07:55:59 12° NE 07:57:51 10° ENE daylight
09 Mar - 09:54:55 10° WNW 09:59:35 60° SW 10:05:55 10° SE daylight
09 Mar - 12:03:53 10° SW 12:05:22 11° SSW 12:06:36 10° SSW daylight
09 Mar - 18:26:45 10° SSW 18:36:59 23° SSE 18:48:05 10° E visible
09 Mar - 20:30:21 10° SW 20:45:25 67° SE 20:58:16 10° ENE visible
09 Mar - 22:38:20 10° WSW 22:52:01 44° NW 23:02:16 10° NNE visible
10 Mar - 09:22:53 10° NW 09:27:27 76° SW 09:33:22 10° SE daylight
10 Mar - 11:30:35 10° SW 11:32:45 11° SSW 11:34:50 10° S daylight
10 Mar - 17:54:31 10° S 18:03:35 20° SSE 18:13:55 10° ESE daylight
10 Mar - 19:57:25 10° SW 20:12:10 60° SE 20:25:28 10° ENE visible
10 Mar - 22:04:39 10° WSW 22:19:03 51° NW 22:30:10 10° NNE visible
11 Mar - 00:21:10 10° WNW 00:25:43 12° NW 00:28:50 10° NNW night (unlit)
11 Mar - 08:50:54 10° NW 08:55:21 83° NE 09:00:51 10° SE daylight
11 Mar - 10:57:37 10° SW 11:00:13 13° SSW 11:02:53 10° S daylight
11 Mar - 17:22:33 10° S 17:30:12 17° SSE 17:39:22 10° ESE daylight
11 Mar - 19:24:38 10° SSW 19:38:54 53° SE 19:52:30 10° ENE visible
11 Mar - 21:31:07 10° WSW 21:46:01 59° NW 21:57:57 10° NE visible
11 Mar - 23:45:19 10° WNW 23:52:47 16° NW 23:58:19 10° N visible
12 Mar - 08:18:56 10° NW 08:23:17 62° NE 08:28:21 10° ESE daylight
12 Mar - 10:24:50 10° WSW 10:27:45 14° SSW 10:30:53 10° S daylight
12 Mar - 16:50:56 10° S 16:56:50 14° SSE 17:04:18 10° ESE daylight
12 Mar - 18:51:57 10° SSW 19:05:36 47° SE 19:19:21 10° ENE visible
12 Mar - 20:57:45 10° WSW 21:12:53 67° NW 21:25:35 10° NE visible
12 Mar - 23:10:18 10° W 23:19:48 20° NW 23:27:01 10° N visible
13 Mar - 07:47:00 10° NNW 07:51:15 45° NE 07:55:52 10° ESE daylight
13 Mar - 09:52:10 10° WSW 09:55:21 17° SSW 09:58:52 10° S daylight
13 Mar - 16:20:07 10° SSE 16:23:29 12° SSE 16:28:18 10° SE daylight
13 Mar - 18:19:25 10° SSW 18:32:18 42° SE 18:46:02 10° ENE visible
13 Mar - 20:24:31 10° SW 20:39:43 75° NW 20:53:06 10° NE visible
13 Mar - 22:35:43 10° W 22:46:45 24° NW 22:55:23 10° N visible
14 Mar - 07:15:05 10° NNW 07:19:10 34° NE 07:23:22 10° ESE daylight
14 Mar - 09:19:37 10° W 09:23:02 20° SW 09:26:51 10° SSE daylight
14 Mar - 17:47:00 10° SSW 17:59:02 37° SE 18:12:29 10° ENE daylight
14 Mar - 19:51:26 10° SW 20:06:30 83° NW 20:20:29 10° NE visible
14 Mar - 22:01:26 10° W 22:13:40 29° NW 22:23:30 10° NNE visible
